Regional Weather Roundup
Issued by NWS

Home | Current Version | Previous Version | Text Only | Print | Product List | Glossary On
Versions: 1 2 3 4 5 6 7 8 9 10 11 12 13 14 15 16 17 18 19 20 21 22 23 24 25 26 27 28 29 30 31 32 33 34 35 36 37 38 39 40 41 42 43 44 45 46 47 48 49 50
000
ASUS46 KLOX 271113
RWRCA

SOUTHERN CALIFORNIA WEATHER ROUNDUP
NATIONAL WEATHER SERVICE OXNARD CALIFORNIA
400 AM PDT FRI MAY 27 2016

NOTE: "FAIR" INDICATES FEW OR NO CLOUDS BELOW 12,000 FEET WITH NO
SIGNIFICANT WEATHER AND/OR OBSTRUCTIONS TO VISIBILITY.

  -  STATIONS PRECEEDED BY AN ASTERISK (*) ARE NOT NWS OR FAA
     STATIONS AND ARE NOT SUBJECT TO NWS AND FAA QUALITY CONTROL.

CAZ041-042-087-271200-
LA AND ORANGE COUNTY COASTAL AREAS


CITY           SKY/WX    TMP DP  RH WIND       PRES   REMARKS
L.A. DOWNTOWN  CLEAR     59  53  80 CALM      29.94F
L.A. AIRPORT   PTCLDY    59  54  83 CALM      29.95F
LONG BEACH     MOCLDY    60  55  83 SE3       29.95F

CITY           SKY/WX    TMP DP  RH WIND       PRES   REMARKS
AVALON           N/A     59 N/A N/A E2          N/A
FULLERTON      CLOUDY    61  55  81 CALM      29.94F
*GETTY CENTER    N/A     54  50  87 N3          N/A
HAWTHORNE      CLEAR     59  54  83 CALM      29.95F
*LEO CARRILLO    N/A     55  49  80 N7          N/A
*LOS ALAMITOS  CLOUDY    59  55  87 S2        29.94F
*REDONDO BEACH   N/A     55  51  86 CALM      29.95S
SANTA ANA      CLOUDY    61  54  77 CALM      29.95F
STA MONICA APT CLEAR     56  51  84 CALM      29.95F
*STA MON PIER    N/A     58  53  84 E1        29.88F
*UCLA            N/A     54  50  87 N2        29.92S

$$

CAZ547-548-048-271200-
LA COUNTY VALLEYS AND INLAND EMPIRE


CITY           SKY/WX    TMP DP  RH WIND       PRES   REMARKS
BURBANK        CLEAR     56  49  77 CALM      29.94F
VAN NUYS       CLEAR     57  50  77 CALM      29.94F

CITY           SKY/WX    TMP DP  RH WIND       PRES   REMARKS
CORONA AIRPORT SUNNY     51  49  92 CALM      29.96F
*CHATSWORTH      N/A     55  48  78 CALM      29.95F
CHINO          CLEAR     56  51  84 CALM      29.97S
*CLAREMONT       N/A     50  48  94 CALM        N/A
MARCH AFB      PTCLDY    53  53 100 SE5       29.96S
*NORTHRIDGE      N/A     55  48  76 CALM        N/A
ONTARIO        CLEAR     55  50  83 W5        29.95S
*PASADENA        N/A     57  52  82 E2          N/A
RIVERSIDE      PTCLDY    57  51  80 CALM      29.96S
SAN BERNARDINO NOT AVBL
*SAN RAFAEL HI   N/A     52  49  91 SW7         N/A
*SAUGUS          N/A     54  49  82 CALM        N/A
*WHITEMAN AP   NOT AVBL
*WOODLAND HILL   N/A     52  50  93 S1          N/A

$$

CAZ054-055-271200-
LA AND SAN BERNARDINO COUNTY MOUNTAINS


CITY           SKY/WX    TMP DP  RH WIND       PRES   REMARKS
*ACTON           N/A     47  40  75 CALM        N/A
*BIG BEAR AIRP SUNNY     34  32  93 CALM      30.09S
*BIG PINES       N/A     45  26  46 CALM        N/A
SANDBERG       CLEAR     55  42  61 N17       30.02F

$$

CAZ028-029-059-060-099-271200-
ANTELOPE VALLEY AND SURROUNDING AREAS


CITY           SKY/WX    TMP DP  RH WIND       PRES   REMARKS
LANCASTER      CLEAR     61  42  49 W12       29.93S
PALMDALE       CLEAR     56  40  55 S9        29.94F
*POPPY PARK      N/A     60  40  48 W14G28      N/A

CITY           SKY/WX    TMP DP  RH WIND       PRES   REMARKS
29 PALMS       CLEAR     66  39  37 NW9       29.96S
BARSTOW/DAGGET CLEAR     63  42  46 W13       29.90S
BISHOP         CLEAR     49  32  52 N6        30.00S
CHINA LAKE     MOCLDY    57  39  51 CALM      29.89R
EDWARDS AFB    CLEAR     58  40  50 SW12      29.89F
MOJAVE         CLEAR     63  43  48 W18G24    29.93S
NEEDLES        CLEAR     75  32  20 NW3       29.80R
VICTORVILLE    CLEAR     57  43  58 CALM      29.96R

$$

CAZ039-040-271200-
VENTURA AND SANTA BARBARA COUNTY COAST


CITY           SKY/WX    TMP DP  RH WIND       PRES   REMARKS
CAMARILLO      CLEAR     54  49  83 E6        29.94F
OXNARD AIRPORT CLEAR     54  51  90 E3        29.94F
*POINT MUGU    CLEAR     53  50  89 NE5       29.95F
SBA APT/GOLETA CLEAR     57  54  89 E5        29.94S
*SANTA BARBARA   N/A     58  53  81 CALM      30.01F
*VENTURA         N/A     52  50  91 NW2       29.92F

$$

CAZ044-045-271200-
VENTURA COUNTY VALLEYS


CITY           SKY/WX    TMP DP  RH WIND       PRES   REMARKS
*SIMI VALLEY     N/A     51  48  89 CALM      29.91S
*WESTLAKE VILL   N/A     48  45  87 CALM      29.93S
*OJAI            N/A     47  44  91 CALM      29.90S
*FILLMORE        N/A     50  44  81 CALM      29.85S

$$

CAZ053-271200-
VENTURA COUNTY MOUNTAINS


CITY           SKY/WX    TMP DP  RH WIND       PRES   REMARKS
*ROSE VALLEY     N/A     37  34  87 MISG        N/A

$$

CAZ034-035-036-271200-
CENTRAL COAST AND SANTA YNEZ VALLEY


CITY           SKY/WX    TMP DP  RH WIND       PRES   REMARKS
SAN LUIS OBISP CLOUDY    56  51  84 VRB3      29.98F
SANTA MARIA    CLOUDY    53  51  93 NW3       29.99S

CITY           SKY/WX    TMP DP  RH WIND       PRES   REMARKS
*CAL POLY SLO    N/A     54  52  94 NE5         N/A
*LOMPOC        CLOUDY    54  51  90 NW7       29.99F
*PISMO BEACH     N/A     55  51  89 CALM      29.98F
*SANTA YNEZ    CLOUDY    52  48  87 CALM      29.98F

$$

CAZ037-038-051-271200-
SAN LUIS OBISPO COUNTY INTERIOR AND CUYAMA VALLEY


CITY           SKY/WX    TMP DP  RH WIND       PRES   REMARKS
*CUYAMA          N/A     51  43  74 W1        29.92S
PASO ROBLES    CLEAR     50  47  89 CALM      29.97F

$$

CAZ032-033-061-271200-
SOUTHERN DESERTS


CITY           SKY/WX    TMP DP  RH WIND       PRES   REMARKS
BLYTHE         CLEAR     72  47  40 SW8       29.80S
IMPERIAL       CLEAR     67  46  47 CALM      29.79S
PALM SPRINGS     N/A    N/A N/A N/A MISG      29.83S
THERMAL        CLEAR     71  51  49 NW14      29.78S

$$

ELSEWHERE ACROSS THE WESTERN UNITED STATES AND MEXICO


CITY           SKY/WX    TMP DP  RH WIND       PRES   REMARKS
DEATH VALLEY,    N/A     77  34  21 E2          N/A
DENVER, CO     CLOUDY    47  44  90 W9        29.84F
GRAND CANYON,  CLEAR     29  22  75 CALM      30.05F
HONOLULU, HI   PTCLDY    73  70  88 N3        30.08F
KAHULUI, MAUI  CLEAR     70  66  88 SE6       30.07F
LAKE TAHOE, CA NOT AVBL
LAS VEGAS, NV  PTCLDY    71  36  27 N3        29.81R
MAMMOTH LAKES, FAIR      38  32  79 W8        30.13F WCI  32
MEXICO CITY, M MOCLDY    57  54  88 E6        30.30R
PHOENIX, AZ    CLEAR     69  37  30 E5        29.82S
PORTLAND, OR   CLOUDY    51  46  83 NW7       30.22R
RENO, NV       CLEAR     54  40  59 CALM      30.05F
SALT LAKE CITY PTCLDY    56  41  57 SE8       29.94F
SAN DIEGO, CA  CLOUDY    64  55  72 NW6       29.97S
SAN FRANCISCO, PTCLDY    53  47  79 SW5       29.97F
SAN JOSE, CA   CLEAR     54  49  83 SE10      29.97F
SEATTLE, WA    CLOUDY    50  43  77 SW10      30.13F
TIJUANA, MEX   CLOUDY    61  50  67 CALM      29.98F

$$

STATION/POSITION TIME  TEMP    WIND        PRES    VSBY  WAVE
                       AIR SEA DIR/SP/G                  HT/PER
                 (UTC) (F)     (DEG/KT/KT) (MB)    (MI)  (FT/S)
POINT ARGUELLO B NOT AVBL
WEST SANTA BARBA 1050   54 53  330/ 21/ 25 1013.7S         6/ 9
POINT CONCEPTION NOT AVBL
EAST SANTA BARBA 1000   57 58   80/  4/  6 1014.0F
SANTA MONICA BAY 1050   60 63   80/  6/  8 1013.9F         4/ 8



USA.gov is the U.S. government's official web portal to all federal, state and local government web resources and services.